When you browse on this site, cookies collect data to enhance your experience and personalize the content and advertising you see.
Visit our Privacy Policy to learn more. By continuing to use the site, you agree to this use of cookies and data.
  • în România
  • Lista ţărilor
  • Pe 7 zile
  • Temperatura apei
  • Meteo pe hartă
  • Widget-uri
  • user-avatar
    Intrare

    Meteo pe oră la Aguilas

    Astăzi, 6 Iunie, Sâmbătă

    Timp Temperatura Precipitaţii Vânt Presiune Umiditate
    00:00 +26°C° 0 mm 2 m/s 759 mmHg 56%
    01:00 +25°C° 0 mm 2 m/s 758 mmHg 55%
    02:00 +25°C° 0 mm 2 m/s 758 mmHg 53%
    03:00 +25°C° 0 mm 1 m/s 758 mmHg 51%
    04:00 +25°C° 0 mm 2 m/s 758 mmHg 50%
    05:00 +26°C° 0 mm 2 m/s 758 mmHg 49%
    06:00 +27°C° 0 mm 2 m/s 758 mmHg 45%
    07:00 +28°C° 0 mm 2 m/s 758 mmHg 42%
    08:00 +29°C° 0 mm 2 m/s 758 mmHg 39%
    09:00 +30°C° 0 mm 3 m/s 757 mmHg 36%
    10:00 +31°C° 0 mm 3 m/s 757 mmHg 34%
    11:00 +33°C° 0 mm 4 m/s 757 mmHg 32%
    12:00 +34°C° 0 mm 5 m/s 757 mmHg 30%
    13:00 +34°C° 0 mm 6 m/s 756 mmHg 28%
    14:00 +35°C° 0 mm 7 m/s 756 mmHg 27%
    15:00 +35°C° 0 mm 8 m/s 755 mmHg 25%
    16:00 +35°C° 0 mm 8 m/s 755 mmHg 24%
    17:00 +35°C° 0 mm 8 m/s 755 mmHg 22%
    18:00 +35°C° 0 mm 8 m/s 754 mmHg 21%
    19:00 +34°C° 0 mm 7 m/s 755 mmHg 24%
    20:00 +33°C° 0 mm 6 m/s 755 mmHg 27%
    21:00 +32°C° 0 mm 5 m/s 755 mmHg 30%
    22:00 +29°C° 0 mm 5 m/s 755 mmHg 34%
    23:00 +28°C° 0 mm 4 m/s 755 mmHg 38%

    Mâine, 7 Iunie, Duminică

    Timp Temperatura Precipitaţii Vânt Presiune Umiditate
    00:00 +27°C° 0 mm 4 m/s 755 mmHg 42%
    01:00 +27°C° 0 mm 4 m/s 755 mmHg 43%
    02:00 +26°C° 0 mm 4 m/s 755 mmHg 43%
    03:00 +26°C° 0 mm 4 m/s 755 mmHg 44%
    04:00 +26°C° 0 mm 4 m/s 755 mmHg 44%
    05:00 +26°C° 0 mm 4 m/s 755 mmHg 44%
    06:00 +26°C° 0 mm 3 m/s 756 mmHg 44%
    07:00 +28°C° 0 mm 4 m/s 756 mmHg 40%
    08:00 +29°C° 0 mm 5 m/s 756 mmHg 36%
    09:00 +30°C° 0 mm 5 m/s 756 mmHg 32%
    10:00 +32°C° 0 mm 6 m/s 756 mmHg 31%
    11:00 +32°C° 0 mm 6 m/s 756 mmHg 31%
    12:00 +33°C° 0 mm 6 m/s 757 mmHg 30%
    13:00 +33°C° 0 mm 7 m/s 756 mmHg 30%
    14:00 +33°C° 0 mm 7 m/s 756 mmHg 30%
    15:00 +33°C° 0 mm 8 m/s 756 mmHg 30%
    16:00 +33°C° 0 mm 8 m/s 756 mmHg 31%
    17:00 +32°C° 0 mm 8 m/s 755 mmHg 33%
    18:00 +31°C° 0 mm 8 m/s 755 mmHg 34%
    19:00 +30°C° 0 mm 7 m/s 756 mmHg 35%
    20:00 +29°C° 0 mm 5 m/s 756 mmHg 35%
    21:00 +28°C° 0 mm 4 m/s 756 mmHg 36%
    22:00 +28°C° 0 mm 4 m/s 756 mmHg 38%
    23:00 +27°C° 0 mm 3 m/s 756 mmHg 41%

    Poimâine, 8 Iunie, Luni

    Timp Temperatura Precipitaţii Vânt Presiune Umiditate
    00:00 +27°C° 0 mm 2 m/s 756 mmHg 43%
    01:00 +27°C° 0 mm 2 m/s 756 mmHg 45%
    02:00 +26°C° 0 mm 2 m/s 756 mmHg 47%
    03:00 +26°C° 0 mm 2 m/s 756 mmHg 50%
    04:00 +25°C° 0.1 mm 2 m/s 756 mmHg 52%
    05:00 +25°C° 0.1 mm 2 m/s 756 mmHg 54%
    06:00 +25°C° 0.1 mm 2 m/s 756 mmHg 56%
    07:00 +25°C° 0.3 mm 2 m/s 756 mmHg 54%
    08:00 +26°C° 0.3 mm 2 m/s 757 mmHg 52%
    09:00 +27°C° 0.3 mm 3 m/s 757 mmHg 50%
    10:00 +27°C° 0.6 mm 4 m/s 757 mmHg 50%
    11:00 +27°C° 0.6 mm 4 m/s 757 mmHg 51%
    12:00 +27°C° 0.6 mm 5 m/s 757 mmHg 52%
    13:00 +27°C° 0.7 mm 5 m/s 757 mmHg 54%
    14:00 +27°C° 0.7 mm 5 m/s 757 mmHg 55%
    15:00 +26°C° 0.7 mm 4 m/s 757 mmHg 57%
    16:00 +26°C° 0.5 mm 5 m/s 757 mmHg 61%
    17:00 +25°C° 0.5 mm 5 m/s 757 mmHg 66%
    18:00 +23°C° 0.5 mm 6 m/s 757 mmHg 70%
    19:00 +23°C° 0.1 mm 5 m/s 758 mmHg 73%
    20:00 +22°C° 0.1 mm 4 m/s 758 mmHg 76%
    21:00 +21°C° 0.1 mm 3 m/s 759 mmHg 79%
    22:00 +21°C° 0 mm 3 m/s 759 mmHg 81%
    23:00 +21°C° 0 mm 2 m/s 759 mmHg 82%

    9 Iunie, Marţi

    Timp Temperatura Precipitaţii Vânt Presiune Umiditate
    00:00 +20°C° 0 mm 2 m/s 759 mmHg 83%
    01:00 +20°C° 0 mm 2 m/s 759 mmHg 83%
    02:00 +20°C° 0 mm 2 m/s 759 mmHg 83%
    03:00 +20°C° 0 mm 2 m/s 759 mmHg 84%
    04:00 +20°C° 0 mm 2 m/s 759 mmHg 82%
    05:00 +20°C° 0 mm 2 m/s 760 mmHg 80%
    06:00 +20°C° 0 mm 2 m/s 760 mmHg 79%
    07:00 +21°C° 0 mm 2 m/s 760 mmHg 74%
    08:00 +23°C° 0 mm 2 m/s 760 mmHg 70%
    09:00 +24°C° 0 mm 3 m/s 761 mmHg 65%
    10:00 +24°C° 0.2 mm 3 m/s 761 mmHg 63%
    11:00 +25°C° 0.2 mm 4 m/s 761 mmHg 62%
    12:00 +26°C° 0.2 mm 4 m/s 761 mmHg 60%
    13:00 +26°C° 0.2 mm 4 m/s 760 mmHg 60%
    14:00 +26°C° 0.2 mm 4 m/s 760 mmHg 59%
    15:00 +26°C° 0.2 mm 4 m/s 760 mmHg 59%
    16:00 +25°C° 0.1 mm 4 m/s 760 mmHg 60%
    17:00 +25°C° 0.1 mm 3 m/s 760 mmHg 62%
    18:00 +25°C° 0.1 mm 3 m/s 760 mmHg 63%
    19:00 +24°C° 0 mm 2 m/s 761 mmHg 66%
    20:00 +24°C° 0 mm 1 m/s 761 mmHg 69%
    21:00 +23°C° 0 mm 1 m/s 761 mmHg 71%
    22:00 +23°C° 0 mm 1 m/s 761 mmHg 73%
    23:00 +21°C° 0 mm 0 m/s 761 mmHg 74%

    10 Iunie, Miercuri

    Timp Temperatura Precipitaţii Vânt Presiune Umiditate
    00:00 +20°C° 0 mm 0 m/s 761 mmHg 75%
    01:00 +20°C° 0 mm 0 m/s 761 mmHg 77%
    02:00 +20°C° 0 mm 0 m/s 761 mmHg 78%
    03:00 +19°C° 0 mm 0 m/s 760 mmHg 80%
    04:00 +20°C° 0 mm 0 m/s 760 mmHg 77%
    05:00 +20°C° 0 mm 0 m/s 761 mmHg 75%
    06:00 +20°C° 0 mm 0 m/s 761 mmHg 72%
    07:00 +23°C° 0 mm 1 m/s 761 mmHg 65%
    08:00 +25°C° 0 mm 1 m/s 761 mmHg 58%
    09:00 +26°C° 0 mm 2 m/s 761 mmHg 50%
    10:00 +27°C° 0 mm 2 m/s 761 mmHg 46%
    11:00 +28°C° 0 mm 3 m/s 761 mmHg 42%
    12:00 +29°C° 0 mm 3 m/s 761 mmHg 38%
    13:00 +29°C° 0 mm 4 m/s 760 mmHg 39%
    14:00 +29°C° 0 mm 4 m/s 760 mmHg 40%
    15:00 +28°C° 0 mm 4 m/s 760 mmHg 41%
    16:00 +28°C° 0 mm 3 m/s 760 mmHg 42%
    17:00 +27°C° 0 mm 3 m/s 759 mmHg 43%
    18:00 +27°C° 0 mm 3 m/s 759 mmHg 45%
    19:00 +26°C° 0 mm 3 m/s 760 mmHg 49%
    20:00 +25°C° 0 mm 2 m/s 760 mmHg 53%
    21:00 +25°C° 0 mm 2 m/s 760 mmHg 57%
    22:00 +24°C° 0 mm 2 m/s 760 mmHg 60%
    23:00 +24°C° 0 mm 2 m/s 760 mmHg 62%

    11 Iunie, Joi

    Timp Temperatura Precipitaţii Vânt Presiune Umiditate
    00:00 +24°C° 0 mm 2 m/s 760 mmHg 64%
    01:00 +23°C° 0 mm 2 m/s 760 mmHg 65%
    02:00 +23°C° 0 mm 2 m/s 759 mmHg 66%
    03:00 +23°C° 0 mm 2 m/s 759 mmHg 67%
    04:00 +23°C° 0 mm 2 m/s 759 mmHg 63%
    05:00 +24°C° 0 mm 2 m/s 759 mmHg 59%
    06:00 +25°C° 0 mm 2 m/s 759 mmHg 56%
    07:00 +26°C° 0 mm 2 m/s 759 mmHg 49%
    08:00 +28°C° 0 mm 3 m/s 759 mmHg 42%
    09:00 +30°C° 0 mm 3 m/s 759 mmHg 35%
    10:00 +32°C° 0 mm 4 m/s 759 mmHg 33%
    11:00 +32°C° 0 mm 4 m/s 759 mmHg 31%
    12:00 +33°C° 0 mm 5 m/s 759 mmHg 30%
    13:00 +33°C° 0 mm 6 m/s 759 mmHg 30%
    14:00 +33°C° 0 mm 6 m/s 758 mmHg 30%
    15:00 +33°C° 0 mm 6 m/s 758 mmHg 31%
    16:00 +33°C° 0 mm 6 m/s 758 mmHg 31%
    17:00 +33°C° 0 mm 6 m/s 758 mmHg 31%
    18:00 +33°C° 0 mm 6 m/s 757 mmHg 30%
    19:00 +32°C° 0 mm 5 m/s 758 mmHg 34%
    20:00 +30°C° 0 mm 5 m/s 758 mmHg 38%
    21:00 +29°C° 0 mm 4 m/s 758 mmHg 42%
    22:00 +28°C° 0 mm 4 m/s 758 mmHg 40%
    23:00 +28°C° 0 mm 4 m/s 758 mmHg 38%
    Arată mai mult